www.pogodaiklimat.ru

Погода и климат >> Архив погоды >> Россия >> Якутия >> Нюрба


ПОГОДА в Нюрбе

  • Прогноз погоды в Нюрбе
  • Монитор погоды в Нюрбе
  • Климат города

АРХИВ ПОГОДЫ в Нюрбе

Время (UTC), дата Ветер
(напр.,м/с)
 
Видим.   Явления Облачность Т
(С)
Тd
(С)
f
(%)
Тe
(С)
Тes
(С)
Комфортность P
(гПа)
Po
(гПа)
Тmin
(С)
Tmax
(С)
R
(мм)
R24
(мм)
S
(см)
00 18.05 ЮВ 5 20 км слабая морось 10/10 480 м
[St]
+5.9 +2.7 80 +2 +2 1004.2 989.7 +5.0 0.0
03 18.05 ЮВ 4 50 км {морось} 10/5 600 м
[Sc Ac trans Ci fib]
+11.4 +2.7 55 +9 +11 1001.7 987.5
06 18.05 ЮВ 6-10
{11}
50 км {ливн. осадки, морось} 10/5 600 м
[Cb cap Ac und]
+12.3 -0.7 41 +10 +11 999.8 985.7
09 18.05 ЮВ 5
{11}
50 км {ливн. осадки} 8/4 600 м
[Cb cap Ac trans]
+8.2 +2.5 67 +5 +6 1000.5 986.2
12 18.05 СВ 2 20 км слабый ливневой дождь 10/6 720 м
[Cb cap Ac trans Ci fib]
+7.3 +4.8 84 +5 +5 1001.5 987.2 +12.8 0.2
15 18.05 З 2 20 км слабый ливневой дождь 10/8 600 м
[Cb cap Ac und]
+4.7 +4.0 95 +2 +2 1002.5 987.9
18 18.05 ЮЗ 2 50 км {ливн. осадки} 6/4 600 м
[Sc Ac trans]
+3.1 +2.3 94 -0 -0 1003.0 988.3
21 18.05 ЮЗ 2 50 км 3/3 600 м
[Sc]
+3.1 +1.0 86 0 +1 1003.1 988.4
00 19.05 ЮЗ 5 50 км 4/1 600 м
[Sc Ac trans Ci fib]
+6.9 -2.0 53 +3 +6 1003.3 988.8 +0.7 0.0
03 19.05 З 6-10
{13}
50 км 10/4 600 м
[Sc Ac und]
+8.1 -8.1 31 +5 +6 1004.2 989.8
06 19.05 ЮЗ 5
{12}
50 км 10/5 600 м
[Sc Ac und]
+9.8 -1.2 46 +7 +8 1004.8 990.5
09 19.05 З 4
{10}
50 км 10/5 600 м
[Sc Ac und]
+8.8 -2.5 45 +6 +7 1005.3 990.9
12 19.05 З 4 50 км 10/4 600 м
[Sc Ac trans Ci fib]
+6.7 -2.0 54 +4 +4 1007.6 993.0 +10.4
15 19.05 З 3 50 км 8/3 600 м
[Sc Ac trans]
+4.9 -1.0 66 +2 +2 1008.3 993.6
18 19.05 ЮЗ 5 50 км 10/4 600 м
[Sc Ac und]
+3.6 -1.1 71 -1 -1 1009.4 994.7
21 19.05 ЮЗ 4 50 км 6/0
[Ac trans]
+2.1 -1.9 75 -3 -2 1010.4 995.6
00 20.05 З 5 50 км 10/4 600 м
[Sc Ac und]
+5.6 -1.8 59 +2 +2 1011.2 996.6 +1.7
03 20.05 З 5 20 км слабый ливневой дождь 10/10 540 м
[Cb cap]
+4.9 +1.1 76 0 0 1014.2 999.4
06 20.05 З 4 50 км {ливн. осадки} 8/5 1000 м
[Sc Ac trans]
+7.9 -3.8 43 +5 +8 1015.2 1000.6
09 20.05 С 3 50 км 3/3 1000 м
[Sc]
+10.3 -5.4 33 +9 +11 1016.3 1001.9
12 20.05 ЮЗ 1 50 км ясно +9.8 -3.6 39 +10 +10 1016.6 1002.2 +10.9 0.0
15 20.05 штиль 0 50 км ясно +0.6 -4.5 69 -0 -0 1019.1 1004.1
18 20.05 штиль 0 50 км ясно -2.8 -4.8 86 -4 -4 1020.2 1004.9
21 20.05 штиль 0 50 км 8/0
[Ac trans Ci fib]
-3.0 -5.0 86 -4 -3 1020.1 1004.8
00 21.05 СВ 3 50 км 6/0
[Ci fib]
+7.6 -3.6 45 +5 +10 1019.4 1004.8 -4.1
03 21.05 СВ 3 50 км 6/0
[Ci fib]
+11.5 -8.6 24 +10 +19 1017.4 1002.9
06 21.05 СВ 4 50 км 8/0
[Ci fib]
+13.6 -7.8 22 +13 +19 1014.4 1000.1
09 21.05 СВ 4 50 км 9/0
[Ac trans Ci fib]
+14.0 -6.7 23 +13 +15 1012.2 998.0
12 21.05 В 5 50 км 10/0
[Ac trans Ci fib]
+12.3 -6.7 26 +11 +11 1011.9 997.6 +14.2
15 21.05 СВ 3 50 км 6/0
[Ac trans Ci fib]
+8.3 -6.7 34 +6 +6 1010.7 996.2
18 21.05 СВ 3 50 км 6/0
[Ac trans Ci fib]
+5.7 -5.8 43 +3 +3 1008.8 994.2
21 21.05 СВ 3 50 км 10/4 600 м
[Sc Ac und]
+4.1 -5.8 48 +1 +1 1007.3 992.6
00 22.05 СВ 6
{10}
50 км 10/0
[As trans Cs]
+7.5 -6.0 38 +4 +5 1004.6 990.1 +4.1
03 22.05 СВ 7-12
{13}
50 км 10/0
[As op]
+9.4 -5.7 34 +6 +7 1001.5 987.2
06 22.05 СВ 7-12
{13}
50 км 10/0
[As op]
+11.6 -4.7 32 +9 +10 998.7 984.6
09 22.05 В 10-15
{16}
50 км 10/5 600 м
[Cb cap As op]
+11.2 -3.0 37 +8 +8 997.4 983.2
12 22.05 В 7-12
{15}
50 км 10/5 600 м
[Cb cap As op]
+10.4 -1.9 42 +7 +7 996.4 982.2 +11.7
15 22.05 СВ 4
{12}
20 км слабый дождь {ливн. осадки} 10/0 700 м
[Ac As]
+6.6 +4.3 85 +3 +3 994.9 980.5
18 22.05 СВ 4 20 км слабый дождь {ливн. осадки} 10/0 700 м
[Ac As]
+7.5 +2.7 72 +4 +4 991.9 977.6
21 22.05 СВ 4 50 км {дождь} 10/8 800 м
[Cb cap As op]
+8.3 +2.7 68 +5 +5 989.7 975.5
00 23.05 В 4
{10}
50 км {дождь} 10/5 600 м
[Cb cap Ac und]
+12.5 +1.3 46 +11 +12 990.0 976.0 +6.4 1
03 23.05 В 5
{11}
50 км 5/5 600 м
[Sc]
+17.9 +2.1 35 +18 +21 990.0 976.3
06 23.05 ЮВ 8-13
{13}
50 км 5/5 600 м
[Cu Sc]
+21.9 +5.0 33 +22 +23 комфорт 990.2 976.7
09 23.05 ЮВ 5
{13}
50 км 5/5 600 м
[Cu Sc]
+22.9 +6.2 34 +23 +25 комфорт 991.7 978.1
12 23.05 В 4
{13}
20 км слабый ливневой дождь 10/8 720 м
[Cb cap Ac und]
+16.1 +10.3 68 +15 +15 994.9 981.0 +23.3 0.6
15 23.05 В 1 20 км местами туман поземный {ливн. осадки} 3/0
[Ac trans]
+9.2 +8.4 95 +8 +8 995.4 981.2
18 23.05 ЮВ 2 50 км {ливн. осадки} 3/0
[Ac trans]
+8.9 +5.8 81 +7 +7 996.6 982.3
21 23.05 ЮВ 2 50 км 3/0
[Ac trans]
+8.3 +4.6 77 +7 +7 997.7 983.4
00 24.05 Ю 4 50 км 1/0
[Ac trans]
+14.5 +4.3 50 +13 +17 1000.4 986.4 +5.3 0.0
03 24.05 Ю 4 50 км 1/0
[Ac trans]
+19.2 +0.6 29 +19 +27 999.6 985.8
06 24.05 Ю 5
{10}
50 км 1/0
[Ac trans]
+21.3 -0.2 24 +21 +26 комфорт 999.9 986.2
09 24.05 Ю 4 50 км 1/0
[Ac trans]
+22.2 -1.4 21 +21 +24 комфорт 1000.8 987.2
12 24.05 ЮЗ 5
{10}
50 км 3/0
[Ci fib]
+19.3 -2.5 23 +19 +19 1002.8 988.9 +22.4
15 24.05 З 3 50 км ясно +12.9 +2.1 48 +12 +12 1006.6 992.4
18 24.05 ЮЗ 1 50 км ясно +5.3 +0.7 72 +4 +4 1008.5 993.8
21 24.05 З 2 50 км 5/0
[Ac trans]
+7.1 +1.7 68 +5 +6 1009.9 995.3

 

Местоположение метеостанции Нюрба (Якутия, Россия): широта 63.28 долгота 118.30 высота над уровнем моря 119 м.

В архиве по умолчанию представлена погода в Нюрбе за последнюю неделю. Архивные данные за месяц целиком и за предыдущие месяцы, начиная с января 2011 года, Вы можете получить, выбрав интересующий диапазон дат из раскрывающегося списка и нажав кнопку "Ввод!".


*Определитесь, кто Вы:
робот инопланетянин человек

Внимание! Время в таблицах - всемирное. Для получения местного времени необходимо прибавить поправку, которая в Нюрбе равна 9 ч.

Смотрите также архив погоды в соседних городах и на ближайших метеорологических станциях:

Погода в Верхневилюйске (Якутия, Россия) (97 км)
Погода в Чумпуруке (Якутия, Россия) (126 км)
Погода в Сунтаре (Якутия, Россия) (129 км)
Погода в Крестяхе (Якутия, Россия) (159 км)
Погода в Вилюйске (Якутия, Россия) (172 км)
Погода в Мирном (Якутия, Россия) (243 км)
Погода в Килиере (Якутия, Россия) (264 км)
Погода в Дорожном (Якутия, Россия) (265 км)
Погода в Чернышевском (Якутия, Россия) (298 км)
Погода в Эйке (Якутия, Россия) (309 км)

Пояснения к столбцам:

Ветер - указаны скорость ветра в м/с - средняя за 10 мин, порывы в срок и между сроками (в фигурных скобках) и направление, откуда дует ветер: С - северный, СВ - северо-восточный, В - восточный, ЮВ - юго-восточный, Ю - южный, ЮЗ - юго-западный, З - западный, СЗ - северо-западный.
Видимость - горизонтальная дальность видимости в метрах или километрах. При видимости от 1 до 10 км при отсутствии осадков обычно наблюдается дымка, при ухудшении видимости до 1 км и менее - туман. В сухую погоду видимость может ухудшаться дымом, пылью или мглою.
Явления - указаны атмосферные явления, наблюдавшиеся в срок или в последний час перед сроком; фигурными скобками обозначены явления, наблюдавшиеся между сроками (за 1-3 часа до срока); квадратными скобками обозначены град или гололедные отложения с указанием их диаметра в мм.
Облачность - указаны через наклонную черту общая и нижняя облачность в баллах и высота нижней границы облаков в метрах; квадратными скобками обозначены формы облаков: Ci - перистые, Cs - перисто-слоистые, Cc - перисто-кучевые, Ac - высококучевые, As - высокослоистые, Sc - слоисто-кучевые, Ns - слоисто-дождевые, Cu - кучевые, Cb - кучево-дождевые. Подробнее классификацию облаков см. в Атласе облаков (PDF).
T - Температура воздуха - температура, измеренная на высоте 2 м над землей.
Td - Температура точки росы - температура, при понижении до которой содержащийся в воздухе водяной пар достигнет насыщения.
f - Относительная влажность воздуха - влажноcть воздуха, измеренная на высоте 2 м над землей.
Te - Эффективная температура - температура, которую ощущает одетый по сезону человек в тени. Характеристика душности погоды. При расчете учитывается влияние влажности воздуха и скорости ветра на теплоощущения человека.
Tes - Эффективная температура на солнце - температура, которую ощущает человек, с поправкой на солнечный нагрев. Характеристика знойности погоды. Зависит от высоты солнца над горизонтом, облачности и скорости ветра. Ночью, в пасмурную погоду, а также при ветре 12 м/с и более поправка равна нулю.
P - Атмосферное давление - приведенное к уровню моря атмосферное давление.
Po - Атмосферное давление - измеренное на уровне метеостанции атмосферное давление.
Tmin - Минимальная температура - минимум температуры воздуха на высоте 2 м над землей.
Tmax - Максимальная температура - максимум температуры воздуха на высоте 2 м над землей.
R - Количество осадков - Количество выпавших осадков за период времени, мм. При наведении курсора мыши на число - период времени, за который выпало указанное количество осадков.
R24 - Количество осадков - Количество выпавших осадков за 24 часа, мм.
S - Снежный покров - Высота снежного покрова, см. При наведении курсора мыши на число - состояние снежного покрова и степень покрытия местности в баллах.